Location: Bessat
(45.8735°N, 1.9924°E)
Time: 04:48:58
(UTC+00:00)

Cosmos 773 Rocket - Pass Details

Date: 11 May 2021
Orbit: 745 x 777 km, 74.1° (Epoch: 14 June)

Event Time Altitude Azimuth Distance (km) Brightness Sun altitude
Rises 20:10:36 0° 341° (NNW) 3,269 8.3 -9.3°
Reaches altitude 10° 20:13:03 10° 346° (NNW) 2,337 7.4 -9.6°
Maximum altitude 20:18:16 55° 64° (ENE) 931 4.3 -10.3°
Enters shadow 20:22:41 14° 140° (SE) 2,038 5.6 -10.9°
